TimeEDT,TemperatureF,Dew PointF,Humidity,Sea Level PressureIn,VisibilityMPH,Wind Direction,Wind SpeedMPH,Gust SpeedMPH,PrecipitationIn,Events,Conditions,WindDirDegrees,DateUTC
12:53 AM,75.9,75.0,97,30.07,10.0,NE,8.1,-,N/A,,Clear,50,2012-10-05 04:53:00
1:53 AM,75.9,75.9,100,30.08,10.0,ENE,3.5,-,N/A,,Clear,60,2012-10-05 05:53:00
2:29 AM,75.2,75.2,100,30.07,10.0,ENE,9.2,-,N/A,,Scattered Clouds,60,2012-10-05 06:29:00
2:38 AM,75.2,75.2,100,30.06,10.0,ENE,8.1,-,N/A,,Mostly Cloudy,70,2012-10-05 06:38:00
2:53 AM,75.9,75.9,100,30.06,9.0,ENE,6.9,-,N/A,,Overcast,60,2012-10-05 06:53:00
3:53 AM,75.9,75.9,100,30.05,4.0,ENE,4.6,-,N/A,,Overcast,70,2012-10-05 07:53:00
4:53 AM,77.0,77.0,100,30.04,6.0,ENE,5.8,-,N/A,,Overcast,70,2012-10-05 08:53:00
5:53 AM,77.0,77.0,100,30.04,9.0,ENE,5.8,-,N/A,,Overcast,70,2012-10-05 09:53:00
6:53 AM,77.0,77.0,100,30.05,8.0,ENE,6.9,-,N/A,,Overcast,60,2012-10-05 10:53:00
7:53 AM,77.0,77.0,100,30.06,1.5,NNE,6.9,-,N/A,,Overcast,30,2012-10-05 11:53:00
8:53 AM,78.1,78.1,100,30.06,2.0,NE,5.8,-,N/A,,Overcast,40,2012-10-05 12:53:00
9:13 AM,78.8,78.8,100,30.06,5.0,NE,8.1,-,N/A,,Overcast,40,2012-10-05 13:13:00
9:41 AM,78.8,78.8,100,30.06,10.0,ENE,6.9,-,N/A,,Overcast,70,2012-10-05 13:41:00
9:53 AM,80.1,78.1,94,30.06,10.0,ENE,6.9,-,N/A,,Mostly Cloudy,70,2012-10-05 13:53:00
10:49 AM,82.4,77.0,84,30.06,10.0,ENE,8.1,-,N/A,,Mostly Cloudy,60,2012-10-05 14:49:00
10:53 AM,82.9,77.0,82,30.05,10.0,ENE,9.2,-,N/A,,Mostly Cloudy,70,2012-10-05 14:53:00
10:57 AM,82.4,77.0,84,30.06,10.0,ENE,8.1,-,N/A,,Scattered Clouds,70,2012-10-05 14:57:00
12:17 PM,87.8,77.0,70,30.04,10.0,Variable,4.6,-,N/A,,Mostly Cloudy,0,2012-10-05 16:17:00
12:33 PM,87.8,75.2,66,30.03,10.0,ENE,8.1,-,N/A,,Scattered Clouds,70,2012-10-05 16:33:00
12:53 PM,87.1,75.9,69,30.02,10.0,ENE,6.9,-,N/A,,Scattered Clouds,60,2012-10-05 16:53:00
1:53 PM,89.1,75.9,65,29.99,10.0,NE,6.9,-,N/A,,Mostly Cloudy,40,2012-10-05 17:53:00
2:53 PM,87.1,78.1,74,29.97,9.0,WNW,9.2,-,N/A,,Overcast,290,2012-10-05 18:53:00
3:53 PM,88.0,78.1,72,29.94,10.0,West,9.2,-,0.00,,Mostly Cloudy,260,2012-10-05 19:53:00
4:53 PM,87.1,79.0,77,29.91,10.0,West,13.8,-,0.01,,Mostly Cloudy,270,2012-10-05 20:53:00
5:37 PM,75.2,73.4,94,29.94,4.0,ESE,20.7,25.3,0.02,Rain-Thunderstorm,Thunderstorms and Rain,120,2012-10-05 21:37:00
5:45 PM,75.2,73.4,94,29.94,4.0,SE,18.4,-,0.03,Rain-Thunderstorm,Light Thunderstorms and Rain,140,2012-10-05 21:45:00
5:53 PM,75.0,73.9,96,29.95,10.0,ESE,10.4,-,0.03,Thunderstorm,Thunderstorm,120,2012-10-05 21:53:00
6:03 PM,75.2,73.4,94,29.97,1.8,Calm,Calm,-,0.05,Rain-Thunderstorm,Thunderstorms and Rain,0,2012-10-05 22:03:00
6:23 PM,75.2,73.4,94,29.93,5.0,Variable,4.6,-,0.10,Rain-Thunderstorm,Light Thunderstorms and Rain,0,2012-10-05 22:23:00
6:53 PM,73.9,71.1,91,29.94,10.0,North,11.5,-,0.10,Thunderstorm,Mostly Cloudy,10,2012-10-05 22:53:00
7:47 PM,73.4,69.8,88,29.98,10.0,North,8.1,-,N/A,Thunderstorm,Overcast,350,2012-10-05 23:47:00
7:53 PM,73.0,70.0,90,29.98,10.0,NNW,8.1,-,N/A,Thunderstorm,Overcast,340,2012-10-05 23:53:00
8:10 PM,71.6,71.6,100,29.98,4.0,NNW,8.1,-,0.06,Rain,Light Rain,340,2012-10-06 00:10:00
8:53 PM,73.0,72.0,96,29.99,10.0,NE,9.2,-,0.06,,Mostly Cloudy,50,2012-10-06 00:53:00
9:53 PM,73.9,73.0,97,30.00,10.0,NNE,6.9,-,0.03,,Mostly Cloudy,30,2012-10-06 01:53:00
10:53 PM,73.9,73.0,97,29.99,10.0,NE,6.9,-,N/A,,Partly Cloudy,50,2012-10-06 02:53:00
11:53 PM,73.9,72.0,93,29.99,10.0,East,6.9,-,N/A,,Clear,80,2012-10-06 03:53:00